Home   Weather   Durban   Past weeks

Flag for South Africa Past Weather in Durban, South Africa — Yesterday and Last 2 Weeks

Now
61 °F

Clear.


Feels Like: 61 °F
Forecast: 61 / 72 °F
Wind: 1 mph from North

Location: King Shaka International Airport

Current Time: Sep 24, 2016 at 11:03:10 PM

Latest Report: Sep 24, 2016 at 10:00 PM


Visibility: 10 mi

Pressure: 30.09 "Hg

Humidity: 83%

Dew Point: 55 °F

Location of DurbanLocation

Past Weather in Durban — Graph

°F

Durban Temperature Yesterday

Maximum temperature yesterday: 66 °F (at 11:00 AM)
Minimum temperature yesterday: 61 °F (at 12:00 AM)
Average temperature yesterday: 63 °F

High & Low Weather Summary for the Past Weeks

 TemperatureHumidityPressure
High82 °F (Sep 12, 11:00 AM)94% (Sep 24, 3:00 AM)30.54 "Hg (Sep 24, 3:00 AM)
Low54 °F (Sep 19, 5:00 AM)42% (Sep 12, 3:00 PM)29.56 "Hg (Sep 16, 1:00 PM)
Average65 °F75%30.12 "Hg
* Reported Sep 9 10:00 PM — Sep 24 10:00 PM, Durban, Weather by CustomWeather, © 2016

Note: Actual official high and low records may vary slightly from our data, if they occured in-between our weather recording intervals... More about our weather records

Advertising

Durban Weather History for the Previous 24 Hours

Scroll right to see more
 ConditionsComfort  
Time TempWeatherWind HumidityBarometerVisibility
10:00 PM
Sat, Sep 24
61 °FClear.1 mph83%30.09 "Hg10 mi
9:00 PM64 °FClear.2 mph78%30.09 "Hg10 mi
8:00 PM64 °FPassing clouds.2 mph83%30.09 "HgN/A
7:00 PM66 °FPassing clouds.2 mph83%30.07 "HgN/A
6:00 PM68 °FPartly cloudy.3 mph78%30.04 "HgN/A
5:00 PM70 °FPartly sunny.5 mph69%30.01 "HgN/A
4:00 PM70 °FPartly sunny.7 mph73%30.01 "HgN/A
3:00 PM72 °FScattered clouds.10 mph65%29.98 "HgN/A
2:00 PM72 °FScattered clouds.12 mph69%29.98 "HgN/A
1:00 PM72 °FPassing clouds.13 mph65%29.98 "HgN/A
12:00 PM72 °FScattered clouds.14 mph65%30.01 "HgN/A
11:00 AM70 °FPartly sunny.10 mph64%30.07 "HgN/A
10:00 AM70 °FScattered clouds.8 mph64%30.09 "HgN/A
9:00 AM68 °FPassing clouds.6 mph69%30.12 "HgN/A
8:00 AM63 °FPartly sunny.2 mph83%30.12 "HgN/A
7:00 AM61 °FOvercast.1 mph88%30.15 "HgN/A
6:00 AM59 °FOvercast.1 mph88%30.12 "HgN/A
5:00 AM59 °FMostly cloudy.3 mph88%30.12 "Hg6 mi
4:00 AM59 °FDrizzle. Overcast.3 mph88%30.15 "Hg2 mi
3:00 AM59 °FOvercast.6 mph94%30.15 "Hg4 mi
2:00 AM61 °FMostly cloudy.6 mph83%30.18 "Hg4 mi
1:00 AM61 °FLight rain. Overcast.2 mph88%30.18 "Hg4 mi
12:54 AM61 °FLight rain. Mostly cloudy.2 mph83%30.18 "Hg4 mi
12:00 AM61 °FHeavy rain. Mostly cloudy.3 mph88%30.18 "Hg2 mi
11:00 PM
Fri, Sep 23
61 °FDrizzle. Mostly cloudy.5 mph88%30.21 "Hg4 mi
Weather by CustomWeather, © 2016

See weather overviewHow to use our weather pages